軌道要素
The following orbital elements are taken from MPC 66921:
Epoch 2008 Aug. 2.0 TT = JDT 2454680.5
T 2008 Aug. 7.0524 TT MPC
q 3.329192 (2000.0) P Q
z -0.000438 Peri. 0.9281 +0.6536188 +0.6991462
+/-0.000001 Node 50.0433 +0.6919139 -0.7071664
e 1.001458 Incl. 157.7870 +0.3066556 +0.1054052
From 773 observations 2007 Oct. 19-2009 Aug. 26, mean residual 0".6.
|